Richmond, KY

4:32 PM EST on January 23, 2017 (GMT -0500)
Richmond

Weather History for KI39 - June, 2013

Change the Weather History Date:

Friday, June 7, 2013

  Actual Average (KLEX) Record (KLEX)
Temperature  
Mean Temperature 68 °F -  
Max Temperature 75 °F 80 °F 95 °F (1933)
Min Temperature 62 °F 59 °F 44 °F (1998)
Cooling Degree Days 4    
Growing Degree Days 18 (Base 50)    
Moisture  
Dew Point 61 °F    
Average Humidity 81    
Maximum Humidity 100    
Minimum Humidity 53    
Precipitation  
Precipitation 0.00 in - - ()
Sea Level Pressure  
Sea Level Pressure 29.82 in    
Wind  
Wind Speed 3 mph (NNE)    
Max Wind Speed 8 mph    
Max Gust Speed -    
Visibility 6 miles    
Events      
Averages and records for this station are not official NWS values.
T = Trace of Precipitation, MM = Missing Value Source: NWS Daily Summary

Daily Weather History Graph

Daily Weather History Graph

Search for Another Location

Airport or City:

Trip Planner

Search our weather history database for the weather conditions in past years. The results will help you decide how hot, cold, wet, or windy it might be!

Date:

Astronomy

Jun. 07, 2013 Rise Set
Actual Time 6:15 AM EDT 8:56 PM EDT
Civil Twilight 5:44 AM EDT 9:27 PM EDT
Nautical Twilight 5:06 AM EDT 10:06 PM EDT
Astronomical Twilight 4:22 AM EDT 10:50 PM EDT
Moon 5:36 AM EDT (6/7) 8:11 PM EDT (6/7)
Length of Visible Light 15h 43m
Length of Day
14h 41m
Waning Crescent, 1% of the Moon is Illuminated
Jun 7
Waning Crescent
Jun 8
New
Jun 16
First Quarter
Jun 23
Full
Jun 30
Last Quarter

Hourly Weather History & Observations

Time (EDT) Temp. Dew Point Humidity Pressure Visibility Wind Dir Wind Speed Gust Speed Precip Events Conditions
12:15 AM 68.0 °F 64.4 °F 88% 29.81 in 10.0 mi Calm Calm - N/A   Scattered Clouds
12:35 AM 68.0 °F 64.4 °F 88% 29.81 in 7.0 mi Calm Calm - N/A   Mostly Cloudy
12:55 AM 66.2 °F 64.4 °F 94% 29.80 in 7.0 mi Calm Calm - N/A   Scattered Clouds
1:15 AM 66.2 °F 64.4 °F 94% 29.80 in 5.0 mi Calm Calm - N/A   Clear
1:35 AM 66.2 °F 62.6 °F 88% 29.80 in 4.0 mi Calm Calm - N/A   Clear
1:55 AM 66.2 °F 62.6 °F 88% 29.81 in 4.0 mi Calm Calm - N/A   Clear
2:15 AM 64.4 °F 62.6 °F 94% 29.80 in 0.8 mi Calm Calm - N/A   Overcast
2:35 AM 64.4 °F 62.6 °F 94% 29.80 in 1.8 mi Calm Calm - N/A   Overcast
2:55 AM 64.4 °F 62.6 °F 94% 29.79 in 1.5 mi North 4.6 mph - N/A   Overcast
3:15 AM 64.4 °F 62.6 °F 94% 29.79 in 2.5 mi NNE 4.6 mph - N/A   Overcast
3:35 AM 64.4 °F 62.6 °F 94% 29.78 in 2.5 mi Calm Calm - N/A   Overcast
3:55 AM 64.4 °F 62.6 °F 94% 29.78 in 2.5 mi NE 3.5 mph - N/A   Overcast
4:15 AM 64.4 °F 62.6 °F 94% 29.78 in 2.0 mi NNE 3.5 mph - N/A   Overcast
4:35 AM 64.4 °F 62.6 °F 94% 29.78 in 1.8 mi NE 4.6 mph - N/A   Overcast
4:55 AM 64.4 °F 62.6 °F 94% 29.78 in 1.5 mi NNE 6.9 mph - N/A   Overcast
5:15 AM 64.4 °F 62.6 °F 94% 29.78 in 1.5 mi Calm Calm - N/A   Overcast
5:35 AM 64.4 °F 62.6 °F 94% 29.78 in 1.5 mi NNE 4.6 mph - N/A   Overcast
5:55 AM 64.4 °F 62.6 °F 94% 29.78 in 0.8 mi Calm Calm - N/A   Overcast
6:15 AM 62.6 °F 62.6 °F 100% 29.79 in 1.2 mi NNE 4.6 mph - N/A   Overcast
6:35 AM 62.6 °F 60.8 °F 94% 29.79 in 1.2 mi North 4.6 mph - N/A   Overcast
6:55 AM 62.6 °F 60.8 °F 94% 29.79 in 0.5 mi North 4.6 mph - N/A   Overcast
7:15 AM 62.6 °F 60.8 °F 94% 29.79 in 0.2 mi North 6.9 mph - N/A   Overcast
7:35 AM 62.6 °F 60.8 °F 94% 29.79 in 0.2 mi North 5.8 mph - N/A   Overcast
7:55 AM 62.6 °F 62.6 °F 100% 29.80 in 0.2 mi North 3.5 mph - N/A   Overcast
8:15 AM 64.4 °F 62.6 °F 94% 29.80 in 0.5 mi NNE 3.5 mph - N/A   Overcast
8:35 AM 64.4 °F 62.6 °F 94% 29.80 in 0.8 mi North 3.5 mph - N/A   Overcast
8:55 AM 64.4 °F 62.6 °F 94% 29.81 in 1.2 mi North 3.5 mph - N/A   Overcast
9:15 AM 64.4 °F 62.6 °F 94% 29.81 in 1.8 mi North 6.9 mph - N/A   Overcast
9:35 AM 64.4 °F 60.8 °F 88% 29.81 in 2.0 mi North 3.5 mph - N/A   Overcast
9:55 AM 64.4 °F 60.8 °F 88% 29.81 in 2.5 mi NE 4.6 mph - N/A   Overcast
10:15 AM 64.4 °F 60.8 °F 88% 29.82 in 3.0 mi North 4.6 mph - N/A   Overcast
10:35 AM 64.4 °F 62.6 °F 94% 29.81 in 2.0 mi North 3.5 mph - N/A   Overcast
10:55 AM 64.4 °F 62.6 °F 94% 29.82 in 3.0 mi North 3.5 mph - N/A   Overcast
11:15 AM 66.2 °F 60.8 °F 83% 29.82 in 5.0 mi NNE 3.5 mph - N/A   Overcast
11:35 AM 66.2 °F 62.6 °F 88% 29.82 in 5.0 mi NNW 5.8 mph - N/A   Overcast
11:55 AM 66.2 °F 60.8 °F 83% 29.83 in 4.0 mi NNW 3.5 mph - N/A   Overcast
12:15 PM 66.2 °F 60.8 °F 83% 29.83 in 5.0 mi North 5.8 mph - N/A   Overcast
12:35 PM 66.2 °F 60.8 °F 83% 29.83 in 5.0 mi North 4.6 mph - N/A   Overcast
12:55 PM 66.2 °F 60.8 °F 83% 29.83 in 5.0 mi NW 4.6 mph - N/A   Overcast
1:15 PM 66.2 °F 60.8 °F 83% 29.83 in 5.0 mi NNW 4.6 mph - N/A   Overcast
1:35 PM 66.2 °F 60.8 °F 83% 29.83 in 5.0 mi NNW 6.9 mph - N/A   Overcast
1:55 PM 68.0 °F 60.8 °F 78% 29.83 in 5.0 mi North 3.5 mph - N/A   Overcast
2:15 PM 68.0 °F 60.8 °F 78% 29.83 in 5.0 mi NNW 5.8 mph - N/A   Overcast
2:35 PM 68.0 °F 60.8 °F 78% 29.82 in 5.0 mi NW 6.9 mph - N/A   Overcast
2:55 PM 69.8 °F 60.8 °F 73% 29.82 in 10.0 mi NNW 6.9 mph - N/A   Overcast
3:15 PM 69.8 °F 60.8 °F 73% 29.81 in 7.0 mi North 4.6 mph - N/A   Overcast
3:35 PM 71.6 °F 60.8 °F 69% 29.81 in 10.0 mi NNE 8.1 mph - N/A   Mostly Cloudy
3:55 PM 71.6 °F 60.8 °F 69% 29.81 in 10.0 mi North 4.6 mph - N/A   Mostly Cloudy
4:15 PM 73.4 °F 59.0 °F 61% 29.80 in 7.0 mi NNE 5.8 mph - N/A   Scattered Clouds
4:35 PM 75.2 °F 59.0 °F 57% 29.80 in 10.0 mi ENE 5.8 mph - N/A   Scattered Clouds
4:55 PM 75.2 °F 59.0 °F 57% 29.80 in 10.0 mi NNE 3.5 mph - N/A   Scattered Clouds
5:15 PM 75.2 °F 57.2 °F 53% 29.80 in 10.0 mi NW 4.6 mph - N/A   Scattered Clouds
5:35 PM 75.2 °F 57.2 °F 53% 29.80 in 10.0 mi North 6.9 mph - N/A   Clear
5:55 PM 75.2 °F 57.2 °F 53% 29.81 in 10.0 mi North 3.5 mph - N/A   Clear
6:15 PM 75.2 °F 59.0 °F 57% 29.80 in 10.0 mi NNE 4.6 mph - N/A   Clear
6:35 PM 73.4 °F 57.2 °F 57% 29.81 in 10.0 mi NNE 5.8 mph - N/A   Clear
6:55 PM 73.4 °F 57.2 °F 57% 29.81 in 10.0 mi North 3.5 mph - N/A   Clear
7:15 PM 73.4 °F 57.2 °F 57% 29.82 in 10.0 mi NNE 3.5 mph - N/A   Clear
7:35 PM 73.4 °F 57.2 °F 57% 29.82 in 10.0 mi Calm Calm - N/A   Clear
7:55 PM 71.6 °F 59.0 °F 64% 29.83 in 7.0 mi Calm Calm - N/A   Clear
8:15 PM 71.6 °F 59.0 °F 64% 29.83 in 10.0 mi Calm Calm - N/A   Clear
8:35 PM 69.8 °F 59.0 °F 68% 29.84 in 10.0 mi Calm Calm - N/A   Clear
8:55 PM 69.8 °F 59.0 °F 68% 29.84 in 10.0 mi East 3.5 mph - N/A   Clear
9:15 PM 68.0 °F 59.0 °F 73% 29.85 in 10.0 mi East 3.5 mph - N/A   Clear
9:35 PM 68.0 °F 59.0 °F 73% 29.85 in 10.0 mi East 3.5 mph - N/A   Clear
9:55 PM 66.2 °F 59.0 °F 78% 29.86 in 10.0 mi East 3.5 mph - N/A   Scattered Clouds
10:15 PM 66.2 °F 59.0 °F 78% 29.87 in 10.0 mi East 5.8 mph - N/A   Mostly Cloudy
10:35 PM 66.2 °F 59.0 °F 78% 29.87 in 10.0 mi ENE 4.6 mph - N/A   Scattered Clouds
10:55 PM 66.2 °F 57.2 °F 73% 29.88 in 10.0 mi East 4.6 mph - N/A   Scattered Clouds
11:15 PM 66.2 °F 57.2 °F 73% 29.88 in 10.0 mi Calm Calm - N/A   Clear
11:35 PM 64.4 °F 57.2 °F 77% 29.89 in 10.0 mi Calm Calm - N/A   Clear
11:55 PM 64.4 °F 57.2 °F 77% 29.89 in 10.0 mi East 3.5 mph - N/A   Clear